CHINASAT 9B (49125 NORAD) Tracking and Keplerian Element Data

This shows tracking and keplerian element data for the satellite.

Feedback or suggestion? Click here.




ElementValue
Catalog49125
NameCHINASAT 9B
Epoch Orbit53
Epoch Day288.26438101
Epoch Year2021
RAAN237.1423
Inclination0.0159
Eccentricity0.0003472
Argument of Perigee304.5376
Mean Anonmoly38.8991
Mean Motion1.00272847
Decay Rate-3.31E-06
L11 49125U 21080A 21288.26438101 -.00000331 00000-0 00000+0 0 9995
L22 49125 0.0159 237.1423 0003472 304.5376 38.8991 1.00272847 531

Live tracking and technical data element details for CHINASAT 9B (NORAD 49125). CHINASAT 9B can be tracked NOW for your location showing map with azimuth and elevation plus other details from your city location.

Track the satellite on the map from your city or location and see movement details for azimuth, elevation, latitude, longitude, range, height, and movement on the map or in text.







IsCatalogInMostPopularTable: catalog: 49125, numindb: 6
Update: records affected: 1



GetName: 49125 CHINASAT 9B

Hit Count: updated at: Tue, 19 Oct 2021 08:12:18 GMT